Location: ??????????
(54.4061°N, 22.6114°E)
Time: 03:21:37
(UTC+00:00)

Cosmos 1727 Rocket - Pass Details

Date: 23 October 2019
Orbit: 961 x 996 km, 82.9° (Epoch: 19 November)

Event Time Altitude Azimuth Distance (km) Brightness Sun altitude
Rises 16:24:18 0° 169° (S) 3,638 6.9 -10.8°
Reaches altitude 10° 16:26:51 10° 164° (SSE) 2,694 6.2 -11.2°
Maximum altitude 16:32:45 50° 91° (E) 1,212 4.1 -12.0°
Drops below altitude 10° 16:38:41 10° 18° (NNE) 2,714 6.1 -12.9°
Sets 16:41:16 0° 14° (NNE) 3,668 6.9 -13.3°
